Weather History for Burlington, WA

Change the Weather History Date:

Thursday, February 7, 2013

  Actual Average Record
Temperature  
Mean Temperature 42 °F -  
Max Temperature 48 °F 48 °F 35 °F (2014)
Min Temperature 35 °F 32 °F 23 °F (2014)
Degree Days  
Heating Degree Days 24    
Moisture  
Dew Point 39 °F    
Average Humidity 88    
Maximum Humidity 100    
Minimum Humidity 71    
Precipitation  
Precipitation 0.05 in - - ()
Sea Level Pressure  
Sea Level Pressure 30.01 in    
Wind  
Wind Speed 9 mph (SE)    
Max Wind Speed 20 mph    
Max Gust Speed 30 mph    
Visibility 10 miles    
Events      
Averages and records for this station are not official NWS values.
T = Trace of Precipitation, MM = Missing Value Source: NWS Daily Summary

Daily Weather History Graph

Daily Weather History Graph

Search for Another Location

Airport:

Trip Planner

Search our weather history database for the weather conditions in past years. The results will help you decide how hot, cold, wet, or windy it might be!

Date:

Astronomy

Feb. 07, 2013 Rise Set
Actual Time 7:29 AM PST 5:18 PM PST
Civil Twilight 6:56 AM PST 5:51 PM PST
Nautical Twilight 6:19 AM PST 6:29 PM PST
Astronomical Twilight 5:42 AM PST 7:05 PM PST
Moon 5:21 AM PST (2/7) 2:43 PM PST (2/7)
Length of Visible Light 10h 55m
Length of Day
9h 49m
Waning Crescent, 8% of the Moon is Illuminated
Feb 7
Waning Crescent
Feb 9
New
Feb 17
First Quarter
Feb 25
Full
Mar 4
Last Quarter

Hourly Weather History & Observations

Time (PST) Temp. Windchill Dew Point Humidity Pressure Visibility Wind Dir Wind Speed Gust Speed Precip Events Conditions
12:15 AM 48.2 °F - 39.2 °F 71% 29.80 in 10.0 mi SE 6.9 mph - 0.00 in   Overcast
12:35 AM 48.2 °F - 39.2 °F 71% 29.80 in 10.0 mi ESE 8.1 mph 16.1 mph 0.00 in   Overcast
12:55 AM 46.4 °F 41.1 °F 42.8 °F 87% 29.80 in 7.0 mi SE 11.5 mph 18.4 mph 0.00 in   Overcast
1:15 AM 46.4 °F 40.4 °F 42.8 °F 87% 29.79 in 9.0 mi ESE 13.8 mph 20.7 mph 0.01 in   Overcast
1:35 AM 44.6 °F 37.8 °F 42.8 °F 93% 29.79 in 10.0 mi ESE 15.0 mph 18.4 mph 0.02 in   Overcast
1:55 AM 46.4 °F 40.4 °F 42.8 °F 87% 29.81 in 9.0 mi SE 13.8 mph 19.6 mph 0.03 in   Overcast
2:15 AM 44.6 °F 38.1 °F 44.6 °F 100% 29.83 in 6.0 mi SSE 13.8 mph 23.0 mph 0.02 in   Overcast
2:35 AM 44.6 °F 37.8 °F 42.8 °F 93% 29.82 in 9.0 mi SE 15.0 mph 24.2 mph 0.02 in   Overcast
2:55 AM 42.8 °F 35.8 °F 42.8 °F 100% 29.82 in 10.0 mi SE 13.8 mph 23.0 mph 0.02 in   Mostly Cloudy
3:15 AM 42.8 °F 36.2 °F 42.8 °F 100% 29.81 in 10.0 mi SE 12.7 mph 24.2 mph 0.00 in   Mostly Cloudy
3:35 AM 44.6 °F 37.4 °F 42.8 °F 93% 29.82 in 10.0 mi SSE 16.1 mph 29.9 mph 0.00 in   Mostly Cloudy
3:55 AM 44.6 °F 36.9 °F 41.0 °F 87% 29.83 in 10.0 mi SE 18.4 mph 26.5 mph 0.00 in   Mostly Cloudy
4:15 AM 44.6 °F 36.9 °F 41.0 °F 87% 29.84 in 10.0 mi SSE 18.4 mph 26.5 mph 0.00 in   Mostly Cloudy
4:35 AM 44.6 °F 37.4 °F 41.0 °F 87% 29.86 in 10.0 mi SSE 16.1 mph 26.5 mph 0.00 in   Mostly Cloudy
4:55 AM 44.6 °F 38.1 °F 41.0 °F 87% 29.87 in 10.0 mi SSE 13.8 mph 21.9 mph 0.00 in   Overcast
5:15 AM 42.8 °F 34.3 °F 41.0 °F 93% 29.88 in 10.0 mi SSE 19.6 mph 28.8 mph 0.00 in   Overcast
5:35 AM 42.8 °F 35.8 °F 41.0 °F 93% 29.90 in 10.0 mi SSE 13.8 mph 20.7 mph 0.00 in   Overcast
5:55 AM 42.8 °F 36.2 °F 41.0 °F 93% 29.92 in 10.0 mi SSE 12.7 mph 19.6 mph 0.00 in   Overcast
6:15 AM 42.8 °F 38.0 °F 39.2 °F 87% 29.92 in 10.0 mi SSE 8.1 mph 18.4 mph 0.00 in   Overcast
6:35 AM 42.8 °F 37.5 °F 39.2 °F 87% 29.93 in 10.0 mi SSE 9.2 mph 16.1 mph 0.00 in   Overcast
6:55 AM 42.8 °F 37.0 °F 39.2 °F 87% 29.94 in 10.0 mi South 10.4 mph 16.1 mph 0.00 in   Overcast
7:15 AM 42.8 °F 38.0 °F 39.2 °F 87% 29.94 in 10.0 mi SSE 8.1 mph - 0.00 in   Overcast
7:35 AM 42.8 °F 38.0 °F 39.2 °F 87% 29.96 in 10.0 mi SSE 8.1 mph - 0.00 in   Overcast
7:55 AM 42.8 °F 38.0 °F 39.2 °F 87% 29.97 in 10.0 mi SSE 8.1 mph - 0.00 in   Overcast
8:15 AM 42.8 °F 38.6 °F 39.2 °F 87% 29.97 in 10.0 mi SSE 6.9 mph - 0.00 in   Overcast
8:35 AM 42.8 °F 39.3 °F 39.2 °F 87% 29.98 in 10.0 mi SSE 5.8 mph - 0.00 in   Overcast
8:55 AM 42.8 °F 37.0 °F 39.2 °F 87% 29.99 in 10.0 mi SE 10.4 mph 16.1 mph 0.00 in   Overcast
9:35 AM 42.8 °F 38.6 °F 41.0 °F 93% 30.00 in 9.0 mi SSE 6.9 mph - 0.00 in   Overcast
9:55 AM 42.8 °F 37.5 °F 39.2 °F 87% 30.01 in 10.0 mi SSE 9.2 mph - 0.00 in   Overcast
10:15 AM 42.8 °F 40.1 °F 39.2 °F 87% 30.02 in 10.0 mi South 4.6 mph - 0.00 in   Overcast
10:35 AM 44.6 °F 41.4 °F 39.2 °F 81% 30.03 in 10.0 mi SE 5.8 mph - 0.00 in   Overcast
10:55 AM 44.6 °F 40.2 °F 39.2 °F 81% 30.04 in 10.0 mi SE 8.1 mph - 0.00 in   Overcast
11:15 AM 44.6 °F 40.7 °F 39.2 °F 81% 30.04 in 10.0 mi SSE 6.9 mph - 0.00 in   Overcast
11:35 AM 46.4 °F 41.1 °F 39.2 °F 76% 30.04 in 10.0 mi SE 11.5 mph - 0.00 in   Overcast
11:55 AM 44.6 °F 39.2 °F 39.2 °F 81% 30.04 in 10.0 mi South 10.4 mph - 0.00 in   Mostly Cloudy
12:15 PM 46.4 °F 42.9 °F 39.2 °F 76% 30.04 in 10.0 mi South 6.9 mph - 0.00 in   Overcast
12:35 PM 44.6 °F 41.4 °F 39.2 °F 81% 30.04 in 10.0 mi SSE 5.8 mph - 0.00 in   Overcast
12:55 PM 44.6 °F 40.7 °F 39.2 °F 81% 30.04 in 9.0 mi SE 6.9 mph - 0.00 in   Overcast
1:15 PM 46.4 °F 42.9 °F 41.0 °F 81% 30.04 in 10.0 mi SE 6.9 mph - 0.00 in   Overcast
1:35 PM 46.4 °F 41.9 °F 39.2 °F 76% 30.04 in 10.0 mi SSE 9.2 mph - 0.00 in   Mostly Cloudy
1:55 PM 48.2 °F - 39.2 °F 71% 30.04 in 10.0 mi South 8.1 mph - 0.00 in   Mostly Cloudy
2:15 PM 46.4 °F 43.5 °F 39.2 °F 76% 30.05 in 10.0 mi SSE 5.8 mph - 0.00 in   Mostly Cloudy
2:35 PM 46.4 °F 44.3 °F 39.2 °F 76% 30.05 in 10.0 mi ESE 4.6 mph - 0.00 in   Overcast
2:55 PM 46.4 °F 45.2 °F 39.2 °F 76% 30.05 in 10.0 mi SE 3.5 mph - 0.00 in   Overcast
3:15 PM 46.4 °F 44.3 °F 39.2 °F 76% 30.06 in 10.0 mi ESE 4.6 mph - 0.00 in   Mostly Cloudy
3:35 PM 46.4 °F 45.2 °F 39.2 °F 76% 30.06 in 10.0 mi SE 3.5 mph - 0.00 in   Mostly Cloudy
3:55 PM 46.4 °F 44.3 °F 39.2 °F 76% 30.06 in 10.0 mi ESE 4.6 mph - 0.00 in   Partly Cloudy
4:15 PM 46.4 °F - 39.2 °F 76% 30.07 in 10.0 mi Calm Calm - 0.00 in   Clear
4:35 PM 46.4 °F - 39.2 °F 76% 30.07 in 10.0 mi Calm Calm - 0.00 in   Clear
4:55 PM 44.6 °F 43.1 °F 39.2 °F 81% 30.08 in 10.0 mi NE 3.5 mph - 0.00 in   Scattered Clouds
5:15 PM 44.6 °F 42.2 °F 39.2 °F 81% 30.08 in 10.0 mi NE 4.6 mph - 0.00 in   Partly Cloudy
5:35 PM 42.8 °F 41.1 °F 39.2 °F 87% 30.09 in 10.0 mi NNW 3.5 mph - 0.00 in   Clear
5:55 PM 41.0 °F - 39.2 °F 93% 30.10 in 10.0 mi Calm Calm - 0.00 in   Clear
6:15 PM 37.4 °F 33.8 °F 37.4 °F 100% 30.11 in 10.0 mi NW 4.6 mph - 0.00 in   Clear
6:35 PM 39.2 °F 37.0 °F 37.4 °F 93% 30.11 in 10.0 mi NW 3.5 mph - 0.00 in   Clear
6:55 PM 39.2 °F 37.0 °F 37.4 °F 93% 30.12 in 10.0 mi NW 3.5 mph - 0.00 in   Clear
7:15 PM 37.4 °F - 37.4 °F 100% 30.13 in 10.0 mi Calm Calm - 0.00 in   Clear
7:35 PM 37.4 °F - 37.4 °F 100% 30.13 in 10.0 mi Calm Calm - 0.00 in   Clear
7:55 PM 37.4 °F - 37.4 °F 100% 30.14 in 10.0 mi Calm Calm - 0.00 in   Clear
8:15 PM 37.4 °F - 37.4 °F 100% 30.14 in 10.0 mi Calm Calm - 0.00 in   Clear
8:35 PM 35.6 °F 31.7 °F 35.6 °F 100% 30.15 in 10.0 mi NW 4.6 mph - 0.00 in   Clear
8:55 PM 37.4 °F 34.9 °F 37.4 °F 100% 30.16 in 10.0 mi NNW 3.5 mph - 0.00 in   Clear
9:15 PM 35.6 °F - 35.6 °F 100% 30.16 in 10.0 mi Calm Calm - 0.00 in   Clear
9:55 PM 35.6 °F - 35.6 °F 100% 30.17 in 10.0 mi Calm Calm - 0.00 in   Clear
10:15 PM 37.4 °F - 37.4 °F 100% 30.18 in 10.0 mi Calm Calm - 0.00 in   Clear
10:35 PM 35.6 °F - 35.6 °F 100% 30.19 in 10.0 mi Calm Calm - 0.00 in   Clear
10:55 PM 35.6 °F - 35.6 °F 100% 30.20 in 10.0 mi Calm Calm - 0.00 in   Clear
11:15 PM 35.6 °F - 35.6 °F 100% 30.20 in 10.0 mi Calm Calm - 0.00 in   Clear
11:35 PM 35.6 °F - 35.6 °F 100% 30.20 in 10.0 mi Calm Calm - 0.00 in   Clear
11:55 PM 35.6 °F 32.8 °F 35.6 °F 100% 30.21 in 10.0 mi NNE 3.5 mph - 0.00 in   Clear